,,PA_Meas_PMT16A,,PR_Meas_QMR101_102,,RH_Meas_QMH101,,SR_Meas_QMS101,,TA_Meas_QMH101,,GenWind,,GenWind,
time,status,PA,status,PR,status,RH,status,SR,status,TA,status,DirAvg,status,SpdAvg,
2010-05-25, 00:00:04,VALID,917.394,VALID,0,VALID,94.2864,VALID,0,VALID,21.8664,VALID,1,VALID,0.416016,
2010-05-25, 00:01:04,VALID,917.416,VALID,0,VALID,94.1034,VALID,0,VALID,21.8859,VALID,1,VALID,0.460547,
2010-05-25, 00:02:04,VALID,917.437,VALID,0,VALID,93.9662,VALID,0,VALID,21.8876,VALID,1,VALID,0.664063,
2010-05-25, 00:03:04,VALID,917.429,VALID,0,VALID,93.9738,VALID,0,VALID,21.8469,VALID,1,VALID,0.76875,
2010-05-25, 00:04:04,VALID,917.436,VALID,0,VALID,93.9738,VALID,0,VALID,21.7867,VALID,1,VALID,0.508203,
2010-05-25, 00:05:04,VALID,917.445,VALID,0,VALID,94.1187,VALID,0,VALID,21.7672,VALID,1,VALID,0.342187,
2010-05-25, 00:06:04,VALID,917.462,VALID,0,VALID,94.2102,VALID,0,VALID,21.7688,VALID,1,VALID,0.444531,
2010-05-25, 00:07:04,VALID,917.463,VALID,0,VALID,94.3931,VALID,0,VALID,21.7688,VALID,1,VALID,0.166406,
2010-05-25, 00:08:04,VALID,917.444,VALID,0,VALID,94.4694,VALID,0,VALID,21.7688,VALID,1,VALID,0.183594,
2010-05-25, 00:09:04,VALID,917.478,VALID,0,VALID,94.4999,VALID,0,VALID,21.7883,VALID,1,VALID,0.5125,
2010-05-25, 00:10:04,VALID,917.487,VALID,0,VALID,94.5685,VALID,0,VALID,21.8079,VALID,1,VALID,0,
2010-05-25, 00:11:04,VALID,917.501,VALID,0,VALID,94.599,VALID,0,VALID,21.8274,VALID,1,VALID,0,
2010-05-25, 00:12:04,VALID,917.516,VALID,0,VALID,94.6752,VALID,0.107441,VALID,21.8664,VALID,1,VALID,0.0363281,
2010-05-25, 00:13:04,VALID,917.513,VALID,0,VALID,94.5532,VALID,0,VALID,21.8469,VALID,1,VALID,0.191016,
2010-05-25, 00:14:04,VALID,917.521,VALID,0,VALID,94.4541,VALID,0,VALID,21.8469,VALID,1,VALID,0.28125,
2010-05-25, 00:15:04,VALID,917.469,VALID,0,VALID,94.4846,VALID,0.107441,VALID,21.8485,VALID,1,VALID,0.518359,
2010-05-25, 00:16:04,VALID,917.479,VALID,0,VALID,94.6066,VALID,0.107441,VALID,21.7883,VALID,1,VALID,0.349609,
2010-05-25, 00:17:04,VALID,917.436,VALID,0,VALID,94.6371,VALID,0,VALID,21.7493,VALID,1,VALID,0.936328,
2010-05-25, 00:18:04,VALID,917.43,VALID,0,VALID,94.6066,VALID,0.107441,VALID,21.7103,VALID,1,VALID,0.708594,
2010-05-25, 00:19:04,VALID,917.395,VALID,0,VALID,94.5456,VALID,0,VALID,21.6908,VALID,1,VALID,0.951172,
2010-05-25, 00:20:04,VALID,917.366,VALID,0,VALID,94.6066,VALID,0,VALID,21.6323,VALID,1,VALID,0.913281,
2010-05-25, 00:21:04,VALID,917.359,VALID,0,VALID,94.7514,VALID,0,VALID,21.5932,VALID,1,VALID,0.940625,
2010-05-25, 00:22:04,VALID,917.345,VALID,0,VALID,94.8277,VALID,0,VALID,21.5542,VALID,1,VALID,0.907812,
2010-05-25, 00:23:04,VALID,917.333,VALID,0,VALID,94.9039,VALID,0,VALID,21.5347,VALID,1,VALID,0.632813,
2010-05-25, 00:24:04,VALID,917.313,VALID,0,VALID,94.9954,VALID,0,VALID,21.5152,VALID,1,VALID,0.693359,
2010-05-25, 00:25:04,VALID,917.26,VALID,0,VALID,95.0183,VALID,0,VALID,21.4957,VALID,1,VALID,0.478906,
2010-05-25, 00:26:04,VALID,917.245,VALID,0,VALID,94.9573,VALID,0,VALID,21.4762,VALID,1,VALID,0.341016,
2010-05-25, 00:27:04,VALID,917.268,VALID,0,VALID,94.8734,VALID,0,VALID,21.4567,VALID,1,VALID,0.483594,
2010-05-25, 00:28:04,VALID,917.224,VALID,0,VALID,94.7591,VALID,0,VALID,21.4973,VALID,1,VALID,0.409375,
2010-05-25, 00:29:04,VALID,917.197,VALID,0,VALID,94.7362,VALID,0,VALID,21.4957,VALID,1,VALID,0.550781,
2010-05-25, 00:30:04,VALID,917.178,VALID,0,VALID,94.9039,VALID,0,VALID,21.5152,VALID,1,VALID,0.501172,
2010-05-25, 00:31:04,VALID,917.192,VALID,0,VALID,94.881,VALID,0,VALID,21.5347,VALID,1,VALID,0.633984,
2010-05-25, 00:32:04,VALID,917.185,VALID,0,VALID,94.942,VALID,0,VALID,21.5347,VALID,1,VALID,0.178516,
2010-05-25, 00:33:04,VALID,917.176,VALID,0,VALID,94.9725,VALID,0,VALID,21.5754,VALID,1,VALID,0.126172,
2010-05-25, 00:34:04,VALID,917.172,VALID,0,VALID,94.9268,VALID,0,VALID,21.5932,VALID,1,VALID,0,
2010-05-25, 00:35:04,VALID,917.166,VALID,0,VALID,94.9039,VALID,0,VALID,21.5932,VALID,1,VALID,0.141797,
2010-05-25, 00:36:04,VALID,917.176,VALID,0,VALID,94.7133,VALID,0,VALID,21.5737,VALID,1,VALID,0,
2010-05-25, 00:37:04,VALID,917.179,VALID,0,VALID,94.7057,VALID,0,VALID,21.5737,VALID,1,VALID,0.322656,
2010-05-25, 00:38:04,VALID,917.155,VALID,0,VALID,94.5227,VALID,0,VALID,21.5363,VALID,1,VALID,0.525781,
2010-05-25, 00:39:04,VALID,917.17,VALID,0,VALID,94.4694,VALID,0,VALID,21.4567,VALID,1,VALID,0.69375,
2010-05-25, 00:40:04,VALID,917.151,VALID,0,VALID,94.477,VALID,0,VALID,21.3786,VALID,1,VALID,1.20313,
2010-05-25, 00:41:04,VALID,917.148,VALID,0,VALID,94.7057,VALID,0,VALID,21.3006,VALID,86,VALID,1.19453,
2010-05-25, 00:42:04,VALID,917.13,VALID,0,VALID,94.6371,VALID,0,VALID,21.2226,VALID,108,VALID,0.997266,
2010-05-25, 00:43:04,VALID,917.082,VALID,0,VALID,94.6447,VALID,0,VALID,21.1836,VALID,108,VALID,0.673047,
2010-05-25, 00:44:04,VALID,917.095,VALID,0,VALID,94.8887,VALID,0,VALID,21.164,VALID,108,VALID,0.90625,
2010-05-25, 00:45:04,VALID,917.077,VALID,0,VALID,95.1174,VALID,0,VALID,21.1266,VALID,108,VALID,0.628906,
2010-05-25, 00:46:04,VALID,917.074,VALID,0,VALID,95.3079,VALID,0,VALID,21.1055,VALID,108,VALID,0.457422,
2010-05-25, 00:47:04,VALID,917.083,VALID,0,VALID,95.4375,VALID,0,VALID,21.1071,VALID,108,VALID,0.368359,
2010-05-25, 00:48:04,VALID,917.055,VALID,0,VALID,95.5748,VALID,0,VALID,21.0876,VALID,108,VALID,0.279297,
2010-05-25, 00:49:04,VALID,917.085,VALID,0,VALID,95.6967,VALID,0,VALID,21.1071,VALID,108,VALID,0.271094,
2010-05-25, 00:50:04,VALID,917.072,VALID,0,VALID,95.7501,VALID,0,VALID,21.086,VALID,108,VALID,0,
2010-05-25, 00:51:04,VALID,917.035,VALID,0,VALID,95.8111,VALID,0,VALID,21.1266,VALID,108,VALID,0,
2010-05-25, 00:52:04,VALID,917.046,VALID,0,VALID,95.8645,VALID,0,VALID,21.1266,VALID,108,VALID,0.158984,
2010-05-25, 00:53:04,VALID,917.018,VALID,0,VALID,95.895,VALID,0,VALID,21.1461,VALID,108,VALID,0.252734,
2010-05-25, 00:54:04,VALID,917.016,VALID,0,VALID,95.9941,VALID,0,VALID,21.1657,VALID,108,VALID,0.23125,
2010-05-25, 00:55:04,VALID,916.994,VALID,0,VALID,96.0398,VALID,0,VALID,21.1852,VALID,108,VALID,0.244531,
2010-05-25, 00:56:04,VALID,916.98,VALID,0,VALID,96.0474,VALID,0,VALID,21.1852,VALID,108,VALID,0.353516,
2010-05-25, 00:57:04,VALID,916.961,VALID,0,VALID,96.0245,VALID,0,VALID,21.1657,VALID,108,VALID,0.575781,
2010-05-25, 00:58:04,VALID,916.926,VALID,0,VALID,95.9559,VALID,0,VALID,21.086,VALID,108,VALID,0.558984,
2010-05-25, 00:59:04,VALID,916.945,VALID,0,VALID,95.8873,VALID,0,VALID,21.0486,VALID,108,VALID,0.673437,
2010-05-25, 01:00:04,VALID,916.935,VALID,0,VALID,96.055,VALID,0,VALID,21.047,VALID,108,VALID,0.713281,
2010-05-25, 01:01:04,VALID,916.916,VALID,0,VALID,96.1999,VALID,0,VALID,21.1071,VALID,108,VALID,0.718359,
2010-05-25, 01:02:04,VALID,916.912,VALID,0,VALID,96.2228,VALID,0,VALID,21.0665,VALID,108,VALID,0.580078,
2010-05-25, 01:03:04,VALID,916.888,VALID,0,VALID,96.2304,VALID,0,VALID,21.0486,VALID,108,VALID,0.608594,
2010-05-25, 01:04:04,VALID,916.897,VALID,0,VALID,96.299,VALID,0,VALID,21.0681,VALID,108,VALID,0.594922,
2010-05-25, 01:05:04,VALID,916.871,VALID,0,VALID,96.3447,VALID,0,VALID,21.047,VALID,108,VALID,0.675781,
2010-05-25, 01:06:04,VALID,916.87,VALID,0,VALID,96.3676,VALID,0,VALID,21.0681,VALID,108,VALID,0.681641,
2010-05-25, 01:07:04,VALID,916.85,VALID,0,VALID,96.3219,VALID,0,VALID,21.0291,VALID,108,VALID,0.321875,
2010-05-25, 01:08:04,VALID,916.798,VALID,0,VALID,96.1008,VALID,0,VALID,20.891,VALID,108,VALID,0.464844,
2010-05-25, 01:09:04,VALID,916.793,VALID,0,VALID,95.9254,VALID,0,VALID,20.7739,VALID,108,VALID,0.294141,
2010-05-25, 01:10:04,VALID,916.761,VALID,0,VALID,95.6739,VALID,0,VALID,20.6975,VALID,108,VALID,0.219141,
2010-05-25, 01:11:04,VALID,916.76,VALID,0,VALID,95.3613,VALID,0,VALID,20.5999,VALID,108,VALID,0.439844,
2010-05-25, 01:12:04,VALID,916.747,VALID,0,VALID,94.8505,VALID,0,VALID,20.5204,VALID,108,VALID,0.444922,
2010-05-25, 01:13:04,VALID,916.723,VALID,0,VALID,95.0106,VALID,0,VALID,20.5204,VALID,108,VALID,0.703125,
2010-05-25, 01:14:04,VALID,916.703,VALID,0,VALID,95.5748,VALID,0,VALID,20.5399,VALID,108,VALID,0.264062,
2010-05-25, 01:15:04,VALID,916.688,VALID,0,VALID,95.7806,VALID,0,VALID,20.5399,VALID,108,VALID,0,
2010-05-25, 01:16:04,VALID,916.688,VALID,0,VALID,95.9483,VALID,0,VALID,20.5609,VALID,108,VALID,0,
2010-05-25, 01:17:04,VALID,916.699,VALID,0,VALID,96.1084,VALID,0,VALID,20.5594,VALID,108,VALID,0,
2010-05-25, 01:18:04,VALID,916.706,VALID,0,VALID,96.2533,VALID,0,VALID,20.6194,VALID,108,VALID,0,
2010-05-25, 01:19:04,VALID,916.697,VALID,0,VALID,96.3219,VALID,0,VALID,20.6585,VALID,108,VALID,0.237109,
2010-05-25, 01:20:04,VALID,916.705,VALID,0,VALID,96.1999,VALID,0,VALID,20.5804,VALID,108,VALID,0.803906,
2010-05-25, 01:21:04,VALID,916.685,VALID,0,VALID,96.3219,VALID,0,VALID,20.6585,VALID,108,VALID,0.741016,
2010-05-25, 01:22:04,VALID,916.715,VALID,0,VALID,96.36,VALID,0,VALID,20.6569,VALID,108,VALID,0.740234,
2010-05-25, 01:23:04,VALID,916.714,VALID,0,VALID,96.4515,VALID,0,VALID,20.756,VALID,121,VALID,1.02227,
2010-05-25, 01:24:04,VALID,916.685,VALID,0,VALID,96.5506,VALID,0,VALID,20.7934,VALID,140,VALID,0.210938,
2010-05-25, 01:25:04,VALID,916.664,VALID,0,VALID,96.5201,VALID,0,VALID,20.795,VALID,140,VALID,0.153125,
2010-05-25, 01:26:04,VALID,916.685,VALID,0,VALID,96.3829,VALID,0,VALID,20.6975,VALID,140,VALID,0.580078,
2010-05-25, 01:27:04,VALID,916.61,VALID,0,VALID,96.4515,VALID,0,VALID,20.678,VALID,140,VALID,0.404687,
2010-05-25, 01:28:04,VALID,916.611,VALID,0,VALID,96.5048,VALID,0,VALID,20.678,VALID,140,VALID,0.644141,
2010-05-25, 01:29:04,VALID,916.585,VALID,0,VALID,96.5506,VALID,0,VALID,20.699,VALID,140,VALID,0.619922,
2010-05-25, 01:30:04,VALID,916.563,VALID,0,VALID,96.6039,VALID,0,VALID,20.6975,VALID,140,VALID,0.683984,
2010-05-25, 01:31:04,VALID,916.556,VALID,0,VALID,96.642,VALID,0,VALID,20.717,VALID,140,VALID,0.4875,
2010-05-25, 01:32:04,VALID,916.56,VALID,0,VALID,96.6878,VALID,0,VALID,20.6959,VALID,140,VALID,0.272656,
2010-05-25, 01:33:04,VALID,916.55,VALID,0,VALID,96.6878,VALID,0,VALID,20.6975,VALID,140,VALID,0.2375,
2010-05-25, 01:34:04,VALID,916.527,VALID,0,VALID,96.7107,VALID,0,VALID,20.678,VALID,140,VALID,0.173438,
2010-05-25, 01:35:04,VALID,916.556,VALID,0,VALID,96.7411,VALID,0,VALID,20.678,VALID,140,VALID,0.241016,
2010-05-25, 01:36:04,VALID,916.539,VALID,0,VALID,96.7411,VALID,0,VALID,20.6585,VALID,140,VALID,0.414844,
2010-05-25, 01:37:04,VALID,916.552,VALID,0,VALID,96.7335,VALID,0,VALID,20.639,VALID,140,VALID,0.43125,
2010-05-25, 01:38:04,VALID,916.537,VALID,0,VALID,96.764,VALID,0,VALID,20.639,VALID,140,VALID,0.394141,
2010-05-25, 01:39:04,VALID,916.556,VALID,0,VALID,96.7716,VALID,0,VALID,20.639,VALID,140,VALID,0.383594,
2010-05-25, 01:40:04,VALID,916.575,VALID,0,VALID,96.7716,VALID,0,VALID,20.5999,VALID,140,VALID,0.435937,
2010-05-25, 01:41:04,VALID,916.539,VALID,0,VALID,96.7564,VALID,0,VALID,20.5609,VALID,140,VALID,0.454297,
2010-05-25, 01:42:04,VALID,916.541,VALID,0,VALID,96.764,VALID,0,VALID,20.5219,VALID,140,VALID,0.401953,
2010-05-25, 01:43:04,VALID,916.516,VALID,0,VALID,96.8098,VALID,0,VALID,20.5024,VALID,140,VALID,0.028125,
2010-05-25, 01:44:04,VALID,916.472,VALID,0,VALID,96.8326,VALID,0,VALID,20.5024,VALID,140,VALID,0.194922,
2010-05-25, 01:45:04,VALID,916.483,VALID,0,VALID,96.886,VALID,0,VALID,20.5219,VALID,140,VALID,0.196484,
2010-05-25, 01:46:04,VALID,916.443,VALID,0,VALID,96.8403,VALID,0,VALID,20.4829,VALID,140,VALID,0.332812,
2010-05-25, 01:47:04,VALID,916.465,VALID,0,VALID,96.8021,VALID,0,VALID,20.4439,VALID,140,VALID,0.214844,
2010-05-25, 01:48:04,VALID,916.473,VALID,0,VALID,96.7107,VALID,0,VALID,20.3854,VALID,140,VALID,0.348047,
2010-05-25, 01:49:04,VALID,916.457,VALID,0,VALID,96.8098,VALID,0,VALID,20.3659,VALID,140,VALID,0.584766,
2010-05-25, 01:50:04,VALID,916.439,VALID,0,VALID,96.8555,VALID,0,VALID,20.3659,VALID,140,VALID,0.724609,
2010-05-25, 01:51:04,VALID,916.474,VALID,0,VALID,96.947,VALID,0,VALID,20.4439,VALID,140,VALID,0.948828,
2010-05-25, 01:52:04,VALID,916.41,VALID,0,VALID,96.9775,VALID,0,VALID,20.4634,VALID,140,VALID,0.901563,
2010-05-25, 01:53:04,VALID,916.391,VALID,0,VALID,96.9546,VALID,0,VALID,20.4244,VALID,140,VALID,0.713672,
2010-05-25, 01:54:05,VALID,916.395,VALID,0,VALID,96.9394,VALID,0,VALID,20.4244,VALID,140,VALID,0.830859,
2010-05-25, 01:55:05,VALID,916.382,VALID,0,VALID,96.9241,VALID,0,VALID,20.4049,VALID,140,VALID,0.744141,
2010-05-25, 01:56:05,VALID,916.376,VALID,0,VALID,96.947,VALID,0,VALID,20.4049,VALID,140,VALID,1,
2010-05-25, 01:57:05,VALID,916.394,VALID,0,VALID,96.9317,VALID,0,VALID,20.4049,VALID,140,VALID,0.799219,
2010-05-25, 01:58:05,VALID,916.36,VALID,0,VALID,96.9241,VALID,0,VALID,20.4244,VALID,140,VALID,0.647656,
2010-05-25, 01:59:05,VALID,916.378,VALID,0,VALID,96.947,VALID,0,VALID,20.4439,VALID,140,VALID,0.702734,
2010-05-25, 02:00:05,VALID,916.396,VALID,0,VALID,96.8098,VALID,0,VALID,20.3854,VALID,140,VALID,0.619531,
2010-05-25, 02:01:05,VALID,916.385,VALID,0,VALID,96.7793,VALID,0,VALID,20.3479,VALID,140,VALID,0.655469,
2010-05-25, 02:02:05,VALID,916.373,VALID,0,VALID,96.7793,VALID,0,VALID,20.3074,VALID,140,VALID,0.732031,
2010-05-25, 02:03:05,VALID,916.38,VALID,0,VALID,96.7488,VALID,0,VALID,20.2668,VALID,140,VALID,0.750781,
2010-05-25, 02:04:05,VALID,916.361,VALID,0,VALID,96.8403,VALID,0,VALID,20.3074,VALID,140,VALID,0.812109,
2010-05-25, 02:05:05,VALID,916.398,VALID,0,VALID,96.8936,VALID,0,VALID,20.3074,VALID,140,VALID,0.670703,
2010-05-25, 02:06:05,VALID,916.358,VALID,0,VALID,96.8784,VALID,0,VALID,20.3269,VALID,140,VALID,0.584375,
2010-05-25, 02:07:05,VALID,916.349,VALID,0,VALID,96.9012,VALID,0,VALID,20.3464,VALID,140,VALID,0.746094,
2010-05-25, 02:08:05,VALID,916.339,VALID,0,VALID,96.8784,VALID,0,VALID,20.3464,VALID,140,VALID,0.620703,
2010-05-25, 02:09:05,VALID,916.32,VALID,0,VALID,96.8631,VALID,0,VALID,20.3659,VALID,140,VALID,0.660547,
2010-05-25, 02:10:05,VALID,916.325,VALID,0,VALID,96.8479,VALID,0,VALID,20.3659,VALID,140,VALID,0.505078,
2010-05-25, 02:11:05,VALID,916.316,VALID,0,VALID,96.8479,VALID,0,VALID,20.3659,VALID,140,VALID,0.364844,
2010-05-25, 02:12:05,VALID,916.304,VALID,0,VALID,96.8631,VALID,0,VALID,20.3854,VALID,140,VALID,0.545313,
2010-05-25, 02:13:05,VALID,916.299,VALID,0,VALID,96.8707,VALID,0,VALID,20.3854,VALID,140,VALID,0.701953,
2010-05-25, 02:14:05,VALID,916.27,VALID,0,VALID,96.8784,VALID,0,VALID,20.4033,VALID,140,VALID,0.694922,
2010-05-25, 02:15:05,VALID,916.275,VALID,0,VALID,96.886,VALID,0,VALID,20.4228,VALID,140,VALID,0.748438,
2010-05-25, 02:16:05,VALID,916.292,VALID,0,VALID,96.8784,VALID,0,VALID,20.4439,VALID,140,VALID,0.855859,
2010-05-25, 02:17:05,VALID,916.281,VALID,0,VALID,96.9012,VALID,0,VALID,20.4829,VALID,140,VALID,0.835547,
2010-05-25, 02:18:05,VALID,916.283,VALID,0,VALID,96.9012,VALID,0,VALID,20.5024,VALID,140,VALID,0.479688,
2010-05-25, 02:19:05,VALID,916.299,VALID,0,VALID,96.9241,VALID,0,VALID,20.5609,VALID,140,VALID,0.449219,
2010-05-25, 02:20:05,VALID,916.261,VALID,0,VALID,96.9165,VALID,0,VALID,20.5999,VALID,140,VALID,0.721484,
2010-05-25, 02:21:05,VALID,916.27,VALID,0,VALID,96.9089,VALID,0,VALID,20.639,VALID,140,VALID,0.420312,
2010-05-25, 02:22:05,VALID,916.244,VALID,0,VALID,96.9089,VALID,0,VALID,20.6585,VALID,140,VALID,0.302734,
2010-05-25, 02:23:05,VALID,916.208,VALID,0,VALID,96.8784,VALID,0,VALID,20.678,VALID,140,VALID,0.426562,
2010-05-25, 02:24:05,VALID,916.219,VALID,0,VALID,96.8555,VALID,0,VALID,20.678,VALID,140,VALID,0.753516,
2010-05-25, 02:25:05,VALID,916.202,VALID,0,VALID,96.8479,VALID,0,VALID,20.678,VALID,140,VALID,0.265625,
2010-05-25, 02:26:05,VALID,916.186,VALID,0,VALID,96.8403,VALID,0,VALID,20.6975,VALID,140,VALID,0.566797,
2010-05-25, 02:27:05,VALID,916.185,VALID,0,VALID,96.8021,VALID,0,VALID,20.6975,VALID,140,VALID,0.425,
2010-05-25, 02:28:05,VALID,916.2,VALID,0,VALID,96.8021,VALID,0,VALID,20.6975,VALID,140,VALID,0.378906,
2010-05-25, 02:29:05,VALID,916.206,VALID,0,VALID,96.7945,VALID,0,VALID,20.6975,VALID,140,VALID,0.238672,
2010-05-25, 02:30:05,VALID,916.195,VALID,0,VALID,96.7335,VALID,0,VALID,20.6569,VALID,140,VALID,0.502734,
2010-05-25, 02:31:05,VALID,916.211,VALID,0,VALID,96.7107,VALID,0,VALID,20.6585,VALID,140,VALID,0.567578,
2010-05-25, 02:32:05,VALID,916.149,VALID,0,VALID,96.5734,VALID,0,VALID,20.6194,VALID,140,VALID,0.592969,
2010-05-25, 02:33:05,VALID,916.181,VALID,0,VALID,96.4972,VALID,0,VALID,20.5609,VALID,140,VALID,0.534766,
2010-05-25, 02:34:05,VALID,916.147,VALID,0,VALID,96.5124,VALID,0,VALID,20.5609,VALID,140,VALID,0.573438,
2010-05-25, 02:35:05,VALID,916.157,VALID,0,VALID,96.4972,VALID,0,VALID,20.5414,VALID,140,VALID,0.592578,
2010-05-25, 02:36:05,VALID,916.104,VALID,0,VALID,96.5277,VALID,0,VALID,20.5414,VALID,140,VALID,0.630469,
2010-05-25, 02:37:05,VALID,916.097,VALID,0,VALID,96.5277,VALID,0,VALID,20.5414,VALID,140,VALID,0.519531,
2010-05-25, 02:38:05,VALID,916.116,VALID,0,VALID,96.5429,VALID,0,VALID,20.5414,VALID,140,VALID,0.345703,
2010-05-25, 02:39:05,VALID,916.101,VALID,0,VALID,96.5582,VALID,0,VALID,20.5414,VALID,140,VALID,0.491406,
2010-05-25, 02:40:05,VALID,916.094,VALID,0,VALID,96.5734,VALID,0,VALID,20.5414,VALID,140,VALID,0.621875,
2010-05-25, 02:41:05,VALID,916.101,VALID,0,VALID,96.5811,VALID,0,VALID,20.5204,VALID,140,VALID,0.592188,
2010-05-25, 02:42:05,VALID,916.07,VALID,0,VALID,96.6039,VALID,0,VALID,20.5399,VALID,140,VALID,0.526953,
2010-05-25, 02:43:05,VALID,916.09,VALID,0,VALID,96.5811,VALID,0,VALID,20.5414,VALID,140,VALID,0.203906,
2010-05-25, 02:44:05,VALID,916.08,VALID,0,VALID,96.5734,VALID,0,VALID,20.5414,VALID,140,VALID,0.377734,
2010-05-25, 02:45:05,VALID,916.038,VALID,0,VALID,96.5811,VALID,0,VALID,20.5399,VALID,140,VALID,0.389062,
2010-05-25, 02:46:05,VALID,916.058,VALID,0,VALID,96.5658,VALID,0,VALID,20.5414,VALID,140,VALID,0.269531,
2010-05-25, 02:47:05,VALID,916.081,VALID,0,VALID,96.5506,VALID,0,VALID,20.5204,VALID,140,VALID,0.124219,
2010-05-25, 02:48:05,VALID,916.104,VALID,0,VALID,96.5887,VALID,0,VALID,20.5609,VALID,140,VALID,0.357812,
2010-05-25, 02:49:05,VALID,916.088,VALID,0,VALID,96.5734,VALID,0,VALID,20.5609,VALID,140,VALID,0.240234,
2010-05-25, 02:50:05,VALID,916.102,VALID,0,VALID,96.5582,VALID,0,VALID,20.5804,VALID,140,VALID,0.262891,
2010-05-25, 02:51:05,VALID,916.087,VALID,0,VALID,96.5734,VALID,0,VALID,20.5999,VALID,140,VALID,0.418359,
2010-05-25, 02:52:05,VALID,916.099,VALID,0,VALID,96.5277,VALID,0,VALID,20.5999,VALID,140,VALID,0.414844,
2010-05-25, 02:53:05,VALID,916.108,VALID,0,VALID,96.4667,VALID,0,VALID,20.5999,VALID,140,VALID,0.632031,
2010-05-25, 02:54:05,VALID,916.113,VALID,0,VALID,96.4896,VALID,0,VALID,20.5999,VALID,140,VALID,0.53125,
2010-05-25, 02:55:05,VALID,916.139,VALID,0,VALID,96.4667,VALID,0,VALID,20.5804,VALID,140,VALID,0.264453,
2010-05-25, 02:56:05,VALID,916.132,VALID,0,VALID,96.4591,VALID,0,VALID,20.5999,VALID,140,VALID,0.380469,
2010-05-25, 02:57:05,VALID,916.132,VALID,0,VALID,96.4515,VALID,0,VALID,20.5804,VALID,140,VALID,0.621094,
2010-05-25, 02:58:05,VALID,916.125,VALID,0,VALID,96.3981,VALID,0,VALID,20.5414,VALID,140,VALID,0.123047,
2010-05-25, 02:59:05,VALID,916.15,VALID,0,VALID,96.3219,VALID,0,VALID,20.5024,VALID,140,VALID,0.233984,
2010-05-25, 03:00:05,VALID,916.121,VALID,0,VALID,96.2685,VALID,0,VALID,20.4228,VALID,140,VALID,0.144922,
2010-05-25, 03:01:05,VALID,916.114,VALID,0,VALID,96.1923,VALID,0,VALID,20.4244,VALID,140,VALID,0.251563,
2010-05-25, 03:02:05,VALID,916.098,VALID,0,VALID,96.2304,VALID,0,VALID,20.3838,VALID,140,VALID,0.155078,
2010-05-25, 03:03:05,VALID,916.102,VALID,0,VALID,96.3371,VALID,0,VALID,20.4033,VALID,140,VALID,0.0699219,
2010-05-25, 03:04:05,VALID,916.111,VALID,0,VALID,96.4057,VALID,0,VALID,20.4439,VALID,140,VALID,0.277734,
2010-05-25, 03:05:05,VALID,916.119,VALID,0,VALID,96.4286,VALID,0,VALID,20.4634,VALID,140,VALID,0,
2010-05-25, 03:06:05,VALID,916.105,VALID,0,VALID,96.4743,VALID,0,VALID,20.4634,VALID,140,VALID,0,
2010-05-25, 03:07:05,VALID,916.125,VALID,0,VALID,96.4896,VALID,0,VALID,20.4634,VALID,140,VALID,0.00195313,
2010-05-25, 03:08:05,VALID,916.156,VALID,0,VALID,96.5124,VALID,0,VALID,20.4829,VALID,140,VALID,0.148047,
2010-05-25, 03:09:05,VALID,916.13,VALID,0,VALID,96.5277,VALID,0,VALID,20.4634,VALID,140,VALID,0,
2010-05-25, 03:10:05,VALID,916.11,VALID,0,VALID,96.4743,VALID,0,VALID,20.4634,VALID,140,VALID,0.155859,
2010-05-25, 03:11:05,VALID,916.082,VALID,0,VALID,96.4972,VALID,0,VALID,20.4829,VALID,140,VALID,0,
2010-05-25, 03:12:05,VALID,916.09,VALID,0,VALID,96.4591,VALID,0,VALID,20.4423,VALID,140,VALID,0,
2010-05-25, 03:13:05,VALID,916.02,VALID,0,VALID,96.3981,VALID,0,VALID,20.4634,VALID,140,VALID,0,
2010-05-25, 03:14:05,VALID,916.008,VALID,0,VALID,96.4133,VALID,0,VALID,20.4634,VALID,140,VALID,0.113281,
2010-05-25, 03:15:05,VALID,916.026,VALID,0,VALID,96.3676,VALID,0,VALID,20.4829,VALID,140,VALID,0.353516,
2010-05-25, 03:16:05,VALID,915.988,VALID,0,VALID,96.3219,VALID,0,VALID,20.4829,VALID,140,VALID,0.0875,
2010-05-25, 03:17:05,VALID,915.981,VALID,0,VALID,96.2609,VALID,0,VALID,20.4829,VALID,140,VALID,0.203516,
2010-05-25, 03:18:05,VALID,916.011,VALID,0,VALID,96.1465,VALID,0,VALID,20.4829,VALID,140,VALID,0.391016,
2010-05-25, 03:19:05,VALID,916.003,VALID,0,VALID,96.0169,VALID,0,VALID,20.4634,VALID,140,VALID,0.391797,
2010-05-25, 03:20:05,VALID,916.018,VALID,0,VALID,95.8187,VALID,0,VALID,20.4829,VALID,140,VALID,0.60625,
2010-05-25, 03:21:05,VALID,916,VALID,0,VALID,95.7196,VALID,0,VALID,20.4829,VALID,140,VALID,0.726172,
2010-05-25, 03:22:05,VALID,916.009,VALID,0,VALID,95.6662,VALID,0,VALID,20.4829,VALID,140,VALID,0.4875,
2010-05-25, 03:23:05,VALID,915.995,VALID,0,VALID,95.6129,VALID,0,VALID,20.4423,VALID,140,VALID,0.189063,
2010-05-25, 03:24:05,VALID,915.994,VALID,0,VALID,95.529,VALID,0,VALID,20.4634,VALID,140,VALID,0.320703,
2010-05-25, 03:25:05,VALID,916.024,VALID,0,VALID,95.529,VALID,0,VALID,20.4439,VALID,140,VALID,0.496094,
2010-05-25, 03:26:05,VALID,916.006,VALID,0,VALID,95.5824,VALID,0,VALID,20.4439,VALID,140,VALID,0.444922,
2010-05-25, 03:27:05,VALID,915.99,VALID,0,VALID,95.5595,VALID,0,VALID,20.4439,VALID,140,VALID,0.185937,
2010-05-25, 03:28:05,VALID,916.016,VALID,0,VALID,95.4909,VALID,0,VALID,20.4829,VALID,140,VALID,0.505078,
2010-05-25, 03:29:05,VALID,916.044,VALID,0,VALID,95.4528,VALID,0,VALID,20.5009,VALID,140,VALID,0.333984,
2010-05-25, 03:30:05,VALID,916.032,VALID,0,VALID,95.3308,VALID,0.107441,VALID,20.4993,VALID,140,VALID,0.220313,
2010-05-25, 03:31:05,VALID,916.033,VALID,0,VALID,95.1174,VALID,0.107441,VALID,20.4813,VALID,140,VALID,0.328516,
2010-05-25, 03:32:05,VALID,916.056,VALID,0,VALID,94.9496,VALID,0,VALID,20.4423,VALID,140,VALID,0.341406,
2010-05-25, 03:33:05,VALID,916.032,VALID,0,VALID,94.82,VALID,0.107441,VALID,20.4033,VALID,140,VALID,0.116797,
2010-05-25, 03:34:05,VALID,916.058,VALID,0,VALID,93.9738,VALID,0,VALID,20.2863,VALID,140,VALID,0.0117188,
2010-05-25, 03:35:05,VALID,916.039,VALID,0,VALID,93.9662,VALID,0.107441,VALID,20.2473,VALID,140,VALID,0,
2010-05-25, 03:36:05,VALID,916.024,VALID,0,VALID,94.1797,VALID,0.107441,VALID,20.2473,VALID,140,VALID,0,
2010-05-25, 03:37:05,VALID,916.054,VALID,0,VALID,94.294,VALID,0.107441,VALID,20.2473,VALID,140,VALID,0,
2010-05-25, 03:38:05,VALID,916.048,VALID,0,VALID,94.4236,VALID,0.107441,VALID,20.2473,VALID,140,VALID,0,
2010-05-25, 03:39:05,VALID,916.06,VALID,0,VALID,94.5913,VALID,0.107441,VALID,20.2473,VALID,140,VALID,0.316797,
2010-05-25, 03:40:05,VALID,916.077,VALID,0,VALID,94.9344,VALID,0.107441,VALID,20.2863,VALID,140,VALID,0.493359,
2010-05-25, 03:41:05,VALID,916.101,VALID,0,VALID,95.1555,VALID,0.107441,VALID,20.3058,VALID,140,VALID,0.335156,
2010-05-25, 03:42:05,VALID,916.118,VALID,0,VALID,95.2546,VALID,0.107441,VALID,20.3058,VALID,140,VALID,0.428125,
2010-05-25, 03:43:05,VALID,916.109,VALID,0,VALID,95.003,VALID,0,VALID,20.2278,VALID,140,VALID,0.254297,
2010-05-25, 03:44:05,VALID,916.083,VALID,0,VALID,94.4008,VALID,0,VALID,20.1318,VALID,140,VALID,0.349609,
2010-05-25, 03:45:05,VALID,916.083,VALID,0,VALID,94.1111,VALID,0,VALID,20.0538,VALID,140,VALID,0.482812,